Weather History for KISW - December, 2013

Change the Weather History Date:

Tuesday, December 31, 2013

  Actual Average Record
Temperature  
Mean Temperature -4 °F -  
Max Temperature 3 °F 24 °F 54 °F (1965)
Min Temperature -11 °F 7 °F -25 °F (1967)
Degree Days  
Heating Degree Days 69    
Moisture  
Dew Point -9 °F    
Average Humidity 70    
Maximum Humidity 83    
Minimum Humidity 57    
Precipitation  
Precipitation 0.00 in - - ()
Sea Level Pressure  
Sea Level Pressure 30.33 in    
Wind  
Wind Speed 7 mph (WNW)    
Max Wind Speed 12 mph    
Max Gust Speed -    
Visibility 10 miles    
Events      
Averages and records for this station are not official NWS values.
T = Trace of Precipitation, MM = Missing Value Source: NWS Daily Summary

Daily Weather History Graph

Daily Weather History Graph

Search for Another Location

Airport or City:

Trip Planner

Search our weather history database for the weather conditions in past years. The results will help you decide how hot, cold, wet, or windy it might be!

Date:

Astronomy

Dec. 31, 2013 Rise Set
Actual Time 7:35 AM CST 4:29 PM CST
Civil Twilight 7:02 AM CST 5:03 PM CST
Nautical Twilight 6:25 AM CST 5:39 PM CST
Astronomical Twilight 5:50 AM CST 6:15 PM CST
Moon 6:26 AM CST (12/31) 4:07 PM CST (12/31)
Length of Visible Light 10h 01m
Length of Day
8h 54m
Waning Crescent, 1% of the Moon is Illuminated
Dec 31
Waning Crescent
Jan 1
New
Jan 7
First Quarter
Jan 15
Full
Jan 23
Last Quarter

Hourly Weather History & Observations

Time (CST) Temp. Windchill Dew Point Humidity Pressure Visibility Wind Dir Wind Speed Gust Speed Precip Events Conditions
12:54 AM -2.0 °F -13.9 °F -7.1 °F 79% 30.22 in 9.0 mi West 5.8 mph - N/A   Overcast
1:54 AM -0.9 °F -15.3 °F -7.1 °F 75% 30.22 in 10.0 mi West 8.1 mph - N/A   Overcast
2:54 AM -0.9 °F -14.1 °F -7.1 °F 75% 30.23 in 10.0 mi WNW 6.9 mph - N/A   Overcast
3:54 AM -0.9 °F -11.0 °F -7.1 °F 75% 30.23 in 10.0 mi WNW 4.6 mph - N/A   Overcast
4:54 AM -0.9 °F -12.7 °F -7.1 °F 75% 30.24 in 10.0 mi West 5.8 mph - N/A   Overcast
5:54 AM -0.9 °F -14.1 °F -7.1 °F 75% 30.25 in 8.0 mi West 6.9 mph - N/A   Overcast
6:54 AM -2.0 °F -15.4 °F -7.1 °F 79% 30.27 in 10.0 mi West 6.9 mph - N/A   Overcast
7:54 AM -4.0 °F -16.3 °F -8.0 °F 83% 30.27 in 9.0 mi WNW 5.8 mph - N/A   Mostly Cloudy
8:54 AM -2.0 °F -15.4 °F -8.0 °F 76% 30.28 in 10.0 mi NW 6.9 mph - N/A   Clear
9:54 AM -0.9 °F -16.4 °F -7.1 °F 75% 30.33 in 10.0 mi WNW 9.2 mph - N/A   Overcast
10:54 AM 1.0 °F -11.7 °F -6.0 °F 72% 30.34 in 10.0 mi Variable 6.9 mph - 0.00 in   Partly Cloudy
11:54 AM 1.0 °F -15.8 °F -7.1 °F 69% 30.33 in 10.0 mi WSW 11.5 mph - 0.00 in   Overcast
12:54 PM 1.9 °F -12.9 °F -7.1 °F 66% 30.33 in 10.0 mi WNW 9.2 mph - N/A   Mostly Cloudy
1:54 PM 3.0 °F -12.5 °F -8.0 °F 60% 30.32 in 10.0 mi WNW 10.4 mph - N/A   Overcast
2:54 PM 3.0 °F -10.5 °F -8.0 °F 60% 30.32 in 10.0 mi West 8.1 mph - N/A   Overcast
3:54 PM 3.0 °F -9.3 °F -9.0 °F 57% 30.34 in 10.0 mi WNW 6.9 mph - N/A   Overcast
4:54 PM 1.9 °F -13.8 °F -9.9 °F 58% 30.36 in 10.0 mi NNW 10.4 mph - N/A   Partly Cloudy
5:54 PM -0.0 °F -14.2 °F -11.0 °F 60% 30.38 in 10.0 mi North 8.1 mph - N/A   Clear
6:54 PM -2.9 °F -15.0 °F -13.0 °F 62% 30.41 in 10.0 mi NNW 5.8 mph - N/A   Clear
7:54 PM -5.1 °F -15.8 °F -14.1 °F 65% 30.43 in 10.0 mi NNW 4.6 mph - N/A   Clear
8:54 PM -6.0 °F -18.6 °F -14.1 °F 68% 30.45 in 10.0 mi NNW 5.8 mph - N/A   Clear
9:54 PM -8.0 °F -21.0 °F -15.0 °F 71% 30.44 in 10.0 mi North 5.8 mph - N/A   Clear
10:54 PM -11.0 °F -20.4 °F -16.1 °F 78% 30.47 in 10.0 mi WNW 3.5 mph - N/A   Clear
11:54 PM -11.0 °F -22.8 °F -16.1 °F 78% 30.45 in 9.0 mi North 4.6 mph - N/A   Clear